User: anonymous   Login
Location: Unspecified
(0.0000°N, 0.0000°E)
Time: 07:16:12
(UTC+00:00)
Language:

SR 7B - Orbit

View from above orbital plane
View from above orbital plane
View from above satellite
View from above satellite

Ground track
Ground track

The orbit data is extracted from the following two-line orbital elements,

1  1291U 65016D   18015.87266758 -.00000033 +00000-0 +14358-4 0  9997
2  1291 070.0798 289.2616 0022197 202.5170 157.4964 13.94559061688111
Epoch (UTC): 15 January 2018 20:56:38
Eccentricity: 0.0022197
inclination: 70.0798°
perigee height: 896 km
apogee height: 929 km
right ascension of ascending node: 289.2616°
argument of perigee: 202.5170°
revolutions per day: 13.94559061
mean anomaly at epoch: 157.4964°
orbit number at epoch: 68811

The dashed part of the orbit path shows where the satellite is in the earth's shadow,  

DLR